OPS 4682 DEB, 38384

Orbit data source: Space-Track

OPS 4682 DEB, 38384 is space debris in LEO originally from a launch on Sat, 03 Apr 1965 UTC launched from the Air Force Western Test Range (AFWTR). Debris objects in space refer to the collection of defunct objects orbiting the Earth. Examples of debris include non-operational satellites, rocket bodies, and fragments generated from explosions, collisions, or faulty payload assembly.

Loading next visibility...
Identifier
38384, 1965-027CM
Orbit
LEO
Country
Flag of USUS
Related business
Manufacturer
Unknown
Mission
Spacecraft
Bus & Motor
Unknown
Mass
Unknown
Launch date (UTC)
1965-04-03 (61 years ago)
Launch vehicle
Unknown
Launch site
Air Force Western Test Range (AFWTR)
Object type
Payload
Rocket body
Debris
Shape & HBR
Unknown shape, 0.1 m
Radar Cross Section
Small (<0.1 m²)

Expand to show TLE details & history
Last TLE update: 22 hours ago

TLE from 22 hours ago
0 OPS 4682 DEB
1 38384U 65027CM  26105.47890413 -.00000178  00000-0 -62956-3 0  9995
2 38384  90.2664  15.6039 0015983 150.2426 209.9608 12.98510921656194
Epoch: 2026-04-15T11:29Z
TLE epoch observation values (Epoch: 2026-04-15T11:29:37.316Z)
Latitude
Longitude
-0.4418°
Altitude
1,281.402 km
Speed
7.21 km/s
True Right ascension
01h 02m 24s
True Declination
0° 00' 00"
Sunlit
Object was in daylight at epoch
Visualization orbit readout
Latitude
Unknown
Longitude
Unknown
Altitude
Unknown
Speed
Unknown
Apparent Right ascension
Unknown
Apparent Declination
Unknown
Sunlit
N/A
Visualization observer readout
Local Sidereal Time
16:26:36
Azimuth
Unknown
Elevation
Unknown
Doppler factor
Unknown
Orbital elements
Apogee altitude
1,277.272 km
Perigee altitude
1,252.84 km
Semi-major axis
7,643.193 km
Eccentricity
0.0016
Inclination
90.2664°
RAAN
15.6039°
Arg. of periapsis
150.2426°
True anomaly
209.86949°
Mean anomaly
209.9608°
Eccentric anomaly
209.91513°
Mean motion
3.24811 °/min
Orbital period
110.83 mins
BSTAR
-0.00062956
Loading maneuver chart data...
Computing Atmospheric mass density...
Loading historical data...
Loading historical data...
Loading historical data...
Loading historical data...
Loading historical data...
Loading historical data...
Loading historical data...

Documentation

Showing up to 5 results
|